[[[{"header":{"parameterUnit":"kt","parameterCategory":2,"dx":1,"dy":1,"la1":30.253999710083008,"la2":30.299108505249023,"lo1":-89.0895004272461,"lo2":-89.04439544677734,"nx":28,"ny":28,"refTime":"2022-10-13T21:00:00:Z","depth":0,"parameterNumber":1,"parameterNumberName":"U-component_of_WINDS"},"data":[0.2264,0.2276,0.2296,0.2319,0.234,0.236,0.2373,0.2393,0.2414,0.244,0.2458,0.2479,0.2508,0.2536,0.2557,0.2566,0.2575,0.2566,0.2578,0.26,0.2604,0.2609,0.2607,0.2567,0.2567,0.2553,0.2552,0.2552,0.2283,0.2304,0.2321,0.2352,0.2367,0.2389,0.2414,0.2426,0.2443,0.2468,0.2487,0.2511,0.2533,0.2565,0.2589,0.2597,0.2608,0.2602,0.2602,0.2607,0.2631,0.2629,0.2593,0.2593,0.2593,0.2593,0.2593,0.2593,0.2322,0.2328,0.2358,0.2377,0.2397,0.2417,0.2427,0.2452,0.2469,0.2496,0.2516,0.2535,0.2564,0.2602,0.2619,0.2635,0.2645,0.2645,0.2645,0.2645,0.2643,0.2664,0.264,0.264,0.264,0.2641,0.2641,0,0.2358,0.2374,0.2391,0.2415,0.2429,0.2449,0.247,0.2477,0.2516,0.2529,0.2549,0.2563,0.2592,0.2614,0.264,0.2658,0.2681,0.2685,0.2685,0.2677,0.2667,0.2674,0.2715,0.2685,0.2686,0.2686,0.2686,0.2687,0.2401,0.2404,0.2444,0.2453,0.2469,0.2484,0.2497,0.2531,0.2543,0.2575,0.2578,0.2599,0.2618,0.2646,0.2675,0.2697,0.2708,0.2695,0.2711,0.2704,0.271,0.271,0.2712,0.2692,0.2691,0.269,0.269,0,0.2424,0.2454,0.2466,0.2504,0.2514,0.2516,0.2549,0.2556,0.2579,0.2592,0.2597,0.2633,0.2651,0.2682,0.2709,0.2725,0.2732,0.2741,0.2723,0.2727,0.272,0.2721,0.2688,0.2687,0.2728,0.2727,0.2727,0,0.2473,0.2476,0.2522,0.2526,0.2532,0.2566,0.257,0.259,0.2614,0.2624,0.2654,0.2663,0.2701,0.2715,0.2738,0.2749,0.2753,0.2767,0.2773,0.2764,0.2763,0.2772,0.2774,0.2784,0.2784,0.2784,0.2785,0,0.2506,0.2533,0.2541,0.2552,0.2592,0.2595,0.2611,0.2638,0.2649,0.2669,0.2678,0.2698,0.2709,0.2725,0.2755,0.2765,0.2768,0.2787,0.2781,0.2781,0.278,0.278,0.2743,0.2785,0.2785,0.2785,0.2785,0,0.255,0.2569,0.2575,0.261,0.2615,0.262,0.2643,0.2654,0.2679,0.2694,0.271,0.2733,0.2743,0.2761,0.2777,0.2782,0.2792,0.2805,0.2805,0.2808,0.2827,0.2804,0.2765,0.2762,0.2811,0.2812,0.2812,0,0.2582,0.2595,0.2624,0.2628,0.2639,0.2673,0.2679,0.27,0.272,0.2732,0.2754,0.2767,0.2787,0.2795,0.2798,0.2822,0.2815,0.2823,0.2843,0.2843,0.2837,0.28,0.2787,0.277,0.2815,0.2815,0.2814,0,0.2609,0.2656,0.2654,0.2669,0.2701,0.2709,0.2715,0.2736,0.2743,0.2761,0.2768,0.2786,0.2803,0.2815,0.2836,0.2838,0.2821,0.2854,0.2855,0.2849,0.2818,0.2806,0.2803,0.2834,0.2834,0.2834,0.2817,0,0.2673,0.2682,0.2679,0.2707,0.2718,0.2721,0.2753,0.276,0.278,0.28,0.2809,0.2833,0.2852,0.2855,0.2873,0.2867,0.2873,0.2889,0.2909,0.2884,0.288,0.2877,0.2914,0.2914,0.2915,0.2916,0,0,0.2695,0.2709,0.2739,0.2746,0.2757,0.2791,0.2792,0.2807,0.2834,0.2842,0.2853,0.2881,0.2898,0.2907,0.2901,0.2908,0.2911,0.2917,0.2895,0.2893,0.2891,0.2885,0.2882,0.2917,0.2917,0.2917,0.2917,0,0.2725,0.2742,0.2742,0.2759,0.2784,0.2806,0.2806,0.2836,0.2849,0.2857,0.2885,0.2894,0.2913,0.293,0.2941,0.2917,0.2937,0.292,0.2898,0.2901,0.2897,0.2895,0.2888,0.2885,0.2919,0.2919,0.2919,0,0.2759,0.2782,0.2785,0.281,0.2826,0.2835,0.2864,0.2871,0.2878,0.2913,0.292,0.2937,0.296,0.2962,0.2964,0.2974,0.296,0.2969,0.2966,0.2966,0.297,0.2966,0.2963,0.301,0.301,0.301,0,0,0.2781,0.2789,0.2823,0.2818,0.2827,0.2858,0.2865,0.2884,0.2904,0.2912,0.2934,0.2952,0.2965,0.2972,0.2984,0.2982,0.299,0.2979,0.2974,0.2971,0.297,0.2973,0.2969,0.3011,0.3011,0.3011,0,0,0.2791,0.283,0.2846,0.2844,0.2863,0.2896,0.2892,0.2912,0.2926,0.2929,0.2962,0.2968,0.297,0.2985,0.2991,0.2992,0.3011,0.301,0.2982,0.2977,0.2973,0.297,0.3023,0,0,0,0,0,0.2837,0.2826,0.2839,0.2844,0.2874,0.2888,0.2892,0.2919,0.2933,0.293,0.2951,0.2971,0.2996,0.3002,0.3006,0.2998,0.302,0.3019,0.3017,0.2981,0.2976,0.2971,0,0,0,0,0,0,0.2839,0.2844,0.284,0.2871,0.2879,0.2889,0.2918,0.2925,0.2934,0.2938,0.2967,0.2972,0.2995,0.3002,0.3005,0.2997,0.3022,0.302,0.3018,0.3017,0.2979,0.2975,0.2971,0,0,0,0,0,0.284,0.2845,0.2886,0.2872,0.2878,0.2911,0.2918,0.2925,0.2932,0.2964,0.297,0.2951,0.2994,0.2998,0.3004,0.2995,0.302,0.3021,0.3019,0.3017,0.3016,0.2977,0,0,0,0,0,0,0.2842,0.285,0.2888,0.2891,0.2878,0.2911,0.2917,0.2924,0.2958,0.2964,0.295,0.2953,0.2993,0.2997,0.3,0.2993,0.3019,0.302,0.3021,0.3018,0.3017,0.3016,0,0,0,0,0,0,0.2848,0.2853,0.289,0.2896,0.29,0.2911,0.2917,0.2924,0.2958,0.2943,0.2946,0.2951,0.2988,0.2996,0.2998,0.3009,0.3018,0.3019,0.3019,0.302,0.3017,0.3016,0,0,0,0,0,0,0.2851,0.2854,0.2895,0.2898,0.2901,0.2936,0.2918,0.2948,0.2964,0.2941,0.2966,0.2967,0.2987,0.299,0.2997,0.3006,0.3008,0.3018,0.3018,0.3019,0.3019,0,0,0,0,0,0,0,0.2852,0.2821,0.2871,0.29,0.2903,0.2918,0.2919,0.292,0.2964,0.2965,0.2965,0.2966,0.3012,0.3013,0.3014,0.3004,0,0,0.3018,0.3018,0,0,0,0,0,0,0,0,0.2821,0.2821,0.2871,0.2872,0.2872,0.2918,0.2919,0.292,0.2964,0.2965,0.2965,0.2966,0.3013,0.3013,0.3014,0,0,0,0,0,0,0,0,0,0,0,0,0,0,0,0.2871,0.2872,0,0.2918,0.2919,0.2919,0.2964,0.2965,0.2965,0.2966,0.3013,0.3013,0.3014,0,0,0,0,0,0,0,0,0,0,0,0,0,0,0,0,0,0,0,0,0,0,0,0,0,0,0,0,0,0,0,0,0,0,0,0,0,0,0,0,0,0,0,0,0,0,0,0,0,0,0,0,0,0,0,0,0,0,0,0,0,0,0,0,0,0,0,0,0]}],[{"header":{"parameterUnit":"kt","parameterCategory":2,"dx":1,"dy":1,"la1":30.253999710083008,"la2":30.299108505249023,"lo1":-89.0895004272461,"lo2":-89.04439544677734,"nx":28,"ny":28,"refTime":"2022-10-13T21:00:00:Z","depth":0,"parameterNumber":2,"parameterNumberName":"V-component_of_WINDS"},"data":[-3.7287,-3.7311,-3.7316,-3.7346,-3.7355,-3.7376,-3.7384,-3.7396,-3.7406,-3.743,-3.7444,-3.745,-3.746,-3.7478,-3.7492,-3.7494,-3.75,-3.7506,-3.7507,-3.7478,-3.7474,-3.747,-3.7465,-3.7507,-3.7507,-3.7535,-3.7536,-3.7536,-3.7267,-3.7277,-3.7294,-3.7313,-3.7328,-3.7326,-3.734,-3.7352,-3.737,-3.7382,-3.7396,-3.7417,-3.7434,-3.7442,-3.7458,-3.7468,-3.7467,-3.7472,-3.747,-3.7472,-3.7442,-3.7436,-3.7473,-3.7473,-3.7473,-3.7473,-3.7473,-3.7473,-3.7232,-3.7246,-3.7261,-3.7279,-3.729,-3.7303,-3.7316,-3.7324,-3.734,-3.7358,-3.7359,-3.7379,-3.739,-3.7411,-3.7418,-3.7433,-3.7427,-3.7433,-3.7435,-3.7436,-3.7437,-3.7395,-3.7436,-3.7436,-3.7436,-3.7436,-3.7436,0,-3.7207,-3.721,-3.7226,-3.7244,-3.7257,-3.7271,-3.7284,-3.7293,-3.7298,-3.7311,-3.7329,-3.734,-3.7361,-3.7377,-3.7392,-3.7398,-3.7394,-3.7394,-3.7399,-3.7397,-3.7395,-3.7395,-3.7345,-3.7393,-3.7392,-3.7392,-3.7392,-3.7392,-3.717,-3.7187,-3.7203,-3.7214,-3.7222,-3.7239,-3.725,-3.7254,-3.7264,-3.728,-3.7292,-3.7309,-3.7322,-3.735,-3.7355,-3.737,-3.7368,-3.7386,-3.737,-3.7369,-3.7366,-3.7365,-3.7366,-3.7388,-3.7388,-3.7389,-3.7389,0,-3.7149,-3.7156,-3.7182,-3.7196,-3.72,-3.7216,-3.7228,-3.7241,-3.7246,-3.7265,-3.727,-3.7277,-3.7294,-3.7297,-3.7316,-3.7317,-3.7342,-3.734,-3.7338,-3.7338,-3.7353,-3.7351,-3.7404,-3.7411,-3.7368,-3.7369,-3.7369,0,-3.712,-3.7141,-3.7149,-3.7163,-3.7187,-3.7189,-3.7212,-3.7218,-3.7228,-3.7243,-3.724,-3.7254,-3.7255,-3.727,-3.7271,-3.7292,-3.7296,-3.7297,-3.7297,-3.7297,-3.7296,-3.73,-3.7297,-3.7297,-3.7297,-3.7297,-3.7296,0,-3.7085,-3.7113,-3.7137,-3.7145,-3.716,-3.7172,-3.7178,-3.7189,-3.7199,-3.7213,-3.7219,-3.7234,-3.7242,-3.7253,-3.7254,-3.7243,-3.7281,-3.7266,-3.7282,-3.7282,-3.7288,-3.7287,-3.7336,-3.7296,-3.7296,-3.7296,-3.7296,0,-3.706,-3.7075,-3.711,-3.7123,-3.713,-3.7145,-3.716,-3.7175,-3.7186,-3.7188,-3.7198,-3.7195,-3.7215,-3.72,-3.7227,-3.7212,-3.722,-3.7223,-3.7224,-3.7224,-3.7207,-3.7232,-3.7279,-3.7283,-3.7227,-3.7226,-3.7226,0,-3.7018,-3.7054,-3.7056,-3.7088,-3.7105,-3.71,-3.7117,-3.7128,-3.7132,-3.7146,-3.7149,-3.7165,-3.7154,-3.7159,-3.7173,-3.7176,-3.7195,-3.7174,-3.7192,-3.7192,-3.7188,-3.7232,-3.7237,-3.7269,-3.7219,-3.7219,-3.722,0,-3.6986,-3.7005,-3.701,-3.7018,-3.7032,-3.7046,-3.7066,-3.7082,-3.7091,-3.7103,-3.7119,-3.7141,-3.7134,-3.7142,-3.714,-3.7154,-3.7183,-3.7143,-3.7144,-3.7149,-3.7215,-3.7221,-3.7226,-3.7179,-3.718,-3.718,-3.7214,0,-3.6946,-3.6965,-3.698,-3.6997,-3.7008,-3.7028,-3.7031,-3.7042,-3.704,-3.7043,-3.7067,-3.7075,-3.709,-3.7097,-3.7094,-3.7124,-3.7119,-3.7111,-3.7094,-3.7124,-3.7135,-3.7139,-3.7078,-3.7077,-3.7077,-3.7076,0,0,-3.6903,-3.6929,-3.693,-3.6949,-3.6958,-3.6952,-3.6973,-3.6981,-3.6996,-3.7002,-3.6994,-3.7025,-3.7031,-3.7059,-3.7069,-3.7075,-3.708,-3.7069,-3.711,-3.7114,-3.7117,-3.7129,-3.7134,-3.7076,-3.7076,-3.7075,-3.7075,0,-3.6889,-3.6898,-3.6919,-3.6927,-3.694,-3.6942,-3.6947,-3.6957,-3.696,-3.6983,-3.6976,-3.699,-3.7015,-3.7022,-3.7029,-3.7067,-3.7059,-3.7072,-3.7091,-3.7106,-3.711,-3.7114,-3.7127,-3.7131,-3.7074,-3.7074,-3.7074,0,-3.6856,-3.6865,-3.6875,-3.6896,-3.6903,-3.692,-3.6905,-3.6923,-3.6935,-3.6924,-3.6947,-3.6951,-3.6961,-3.6987,-3.6999,-3.6991,-3.704,-3.7025,-3.7027,-3.7028,-3.7042,-3.7048,-3.7052,-3.6992,-3.6991,-3.6991,0,0,-3.6843,-3.686,-3.6869,-3.6893,-3.6898,-3.6901,-3.691,-3.6909,-3.6918,-3.6922,-3.6927,-3.6936,-3.695,-3.6959,-3.6973,-3.7002,-3.7003,-3.7015,-3.7019,-3.7022,-3.7024,-3.7039,-3.7044,-3.699,-3.699,-3.699,0,0,-3.6836,-3.6847,-3.6844,-3.6872,-3.6882,-3.6891,-3.6905,-3.69,-3.6913,-3.691,-3.6907,-3.6909,-3.6934,-3.6938,-3.6923,-3.6966,-3.6951,-3.6954,-3.6963,-3.6967,-3.6971,-3.6969,-3.6906,0,0,0,0,0,-3.6822,-3.6846,-3.6843,-3.6848,-3.6873,-3.6894,-3.6897,-3.6895,-3.6884,-3.6896,-3.6899,-3.689,-3.6929,-3.6916,-3.6921,-3.6936,-3.6976,-3.6978,-3.6981,-3.6998,-3.7004,-3.7008,0,0,0,0,0,0,-3.6824,-3.683,-3.6842,-3.6852,-3.6858,-3.6893,-3.6874,-3.6874,-3.6883,-3.6881,-3.689,-3.689,-3.6889,-3.6914,-3.6918,-3.6933,-3.6905,-3.6977,-3.6979,-3.6981,-3.7,-3.7004,-3.7008,0,0,0,0,0,-3.6826,-3.6831,-3.6871,-3.6852,-3.6857,-3.686,-3.6873,-3.6873,-3.6879,-3.6884,-3.6884,-3.6877,-3.6889,-3.6892,-3.6916,-3.6931,-3.6902,-3.6903,-3.6978,-3.698,-3.6981,-3.7002,0,0,0,0,0,0,-3.6827,-3.683,-3.6872,-3.6873,-3.6842,-3.6858,-3.6861,-3.6872,-3.6882,-3.6882,-3.6871,-3.6869,-3.689,-3.6892,-3.6895,-3.693,-3.6899,-3.6901,-3.6902,-3.6979,-3.6981,-3.6982,0,0,0,0,0,0,-3.6828,-3.6832,-3.6873,-3.6861,-3.6861,-3.6857,-3.6859,-3.6878,-3.6882,-3.6868,-3.6867,-3.687,-3.6886,-3.6892,-3.6894,-3.6925,-3.6898,-3.6899,-3.69,-3.6901,-3.698,-3.6981,0,0,0,0,0,0,-3.6829,-3.6833,-3.686,-3.6861,-3.686,-3.6876,-3.6874,-3.6899,-3.6873,-3.6868,-3.687,-3.6869,-3.6886,-3.6888,-3.6894,-3.6923,-3.6924,-3.6898,-3.6899,-3.6899,-3.69,0,0,0,0,0,0,0,-3.6831,-3.6808,-3.6864,-3.686,-3.686,-3.6886,-3.6887,-3.6887,-3.6873,-3.6872,-3.6871,-3.687,-3.6889,-3.6891,-3.6892,-3.6923,0,0,-3.6898,-3.6898,0,0,0,0,0,0,0,0,-3.6807,-3.6808,-3.6864,-3.6864,-3.6865,-3.6886,-3.6887,-3.6887,-3.6873,-3.6872,-3.6871,-3.687,-3.689,-3.6891,-3.6892,0,0,0,0,0,0,0,0,0,0,0,0,0,0,0,-3.6864,-3.6864,0,-3.6886,-3.6887,-3.6887,-3.6872,-3.6872,-3.6871,-3.687,-3.689,-3.6891,-3.6892,0,0,0,0,0,0,0,0,0,0,0,0,0,0,0,0,0,0,0,0,0,0,0,0,0,0,0,0,0,0,0,0,0,0,0,0,0,0,0,0,0,0,0,0,0,0,0,0,0,0,0,0,0,0,0,0,0,0,0,0,0,0,0,0,0,0,0,0,0]}]]]